CAPE
0 0 0 0 0 0 0 0 20 101 130 0 70 0 2 2 319 217 258 185 108 107 86 5 0 0 0 0 20 77 211 318 591 703 925 858 629 748 941 1023 1074 968 776 496
0 0 0 0 0 0 0 0 47 122 91 59 3 4 14 5 18 139 176 228 154 115 84 33 1 0 0 1 25 54 119 268 343 408 476 558 716 937 1061 1343 1398 1158 823 685
0 0 0 0 0 0 0 0 21 22 149 116 39 13 49 77 12 5 96 84 114 120 59 20 0 0 0 6 31 41 61 167 310 493 639 894 1112 1387 1373 1379 1182 1387 1165 956
0 0 0 0 0 0 0 0 1 86 44 0 44 0 0 2 2 48 150 38 57 72 80 40 1 0 0 4 34 55 80 187 416 596 704 815 997 1194 1333 1346 1242 1299 1010 512
0 0 0 0 0 0 0 0 30 90 29 0 1 0 0 0 0 0 13 71 5 86 51 43 18 0 0 12 58 127 136 346 491 636 769 833 1055 1266 1525 1295 1275 1029 362 176
0 0 0 0 0 0 0 2 8 5 0 0 0 0 0 0 0 0 0 3 4 101 95 26 29 1 2 61 127 166 284 393 638 806 918 971 1154 1414 1377 1109 891 568 191 217
0 0 0 0 0 0 0 0 0 0 0 0 0 0 0 0 0 0 0 1 7 176 231 131 53 9 5 13 147 238 298 489 725 933 1117 1270 1430 1657 1235 1017 647 444 208 191
0 0 0 0 0 0 0 0 0 0 0 0 0 0 0 0 0 0 0 0 37 128 185 243 160 55 47 19 83 237 356 407 834 1096 1239 1529 1844 1801 1204 877 623 470 177 334
0 0 0 0 0 0 0 0 0 0 0 0 0 0 0 0 0 0 9 9 25 58 129 178 224 170 154 88 85 235 354 434 816 1150 1497 1703 1817 1581 1251 910 624 306 414 560
0 0 0 0 0 0 0 0 0 0 0 0 0 0 0 0 0 0 13 11 0 8 3 25 189 271 258 172 162 266 461 705 982 1341 1605 1843 1841 1514 1140 864 632 584 630 491
0 0 0 0 0 0 0 0 0 0 0 0 0 0 0 0 0 0 16 3 0 32 127 143 121 142 273 281 287 387 558 1008 1352 1609 1795 1939 1617 1385 1105 668 700 725 480 287
0 0 0 0 0 0 0 0 0 0 0 0 0 0 0 0 0 0 1 9 12 10 136 330 303 184 176 250 333 467 838 1293 1598 1739 1873 1986 1685 1240 982 862 849 618 590 520
0 0 0 0 0 0 0 0 0 0 0 0 0 0 0 0 0 2 0 6 15 43 307 461 508 455 378 330 583 770 1043 1404 1770 1947 1963 1761 1506 1223 1133 998 782 660 579 418
0 0 0 0 0 0 0 0 0 0 0 0 0 0 0 6 0 11 3 0 3 71 282 583 555 486 535 634 804 1009 1256 1586 1744 1873 1830 1709 1496 1192 1009 848 691 585 516 381
0 0 0 0 0 0 0 0 0 0 0 0 0 0 0 0 5 8 0 2 7 103 218 560 710 750 871 976 1110 1296 1539 1710 1804 1784 1735 1604 1252 1066 931 767 591 399 306 136
0 0 0 0 0 0 0 0 0 0 0 0 0 0 0 0 0 1 0 31 85 232 302 694 943 1024 1186 1320 1465 1617 1731 1827 1802 1775 1624 1235 1121 961 765 653 467 324 168 6
8 0 0 0 0 0 0 7 113 132 44 41 0 0 0 0 0 5 0 0 105 441 483 861 1273 1317 1396 1550 1668 1660 1765 1791 1843 1748 1400 1120 1036 977 718 503 331 207 108 0
5 5 0 0 0 0 0 2 42 212 60 37 27 17 0 0 0 11 134 6 3 570 758 1006 1495 1576 1667 1783 1885 1869 1833 1807 1741 1606 1375 1146 1065 899 533 341 220 101 13 0
0 0 0 0 0 0 0 0 3 284 199 90 77 98 69 33 354 636 574 476 13 118 836 1141 1584 1827 1909 1940 1996 1902 1860 1699 1603 1414 1147 1002 848 534 419 288 134 3 0 0
0 0 0 0 0 0 0 0 17 27 337 138 47 20 153 625 729 746 644 759 919 854 909 1306 1808 2165 2119 2046 1975 1868 1744 1650 1491 838 577 543 442 422 320 151 10 0 0 0
0 0 9 0 0 0 17 1 61 318 407 128 72 29 25 196 158 278 328 665 1009 1242 1088 1289 1735 2072 2209 2068 1883 1756 1580 1462 811 397 45 222 281 244 108 26 0 0 0 0
0 0 0 0 0 0 0 4 16 152 150 197 114 58 23 16 0 70 630 1002 1090 1329 1394 1378 1736 2098 2247 2024 1802 1711 1485 987 714 602 417 344 117 55 0 6 0 0 0 0
0 0 0 0 0 0 37 12 2 12 116 224 85 122 91 63 18 30 188 809 1315 1540 1759 1631 1775 2059 1957 1843 1811 1432 1088 711 523 316 235 198 63 4 0 0 8 0 0 0
0 0 0 0 0 0 0 0 0 0 2 167 188 147 93 42 0 0 356 667 626 1480 1702 1964 1881 1781 1658 1334 1133 1241 881 447 401 402 308 84 17 0 0 0 0 0 0 0
0 0 0 0 0 0 0 0 0 0 0 3 103 97 34 141 209 458 720 643 1508 1715 1639 1695 1553 1471 969 589 28 15 205 388 500 400 133 75 3 0 0 0 0 0 0 0
0 0 0 0 0 0 0 0 0 0 0 0 51 49 18 5 54 1032 1164 1365 1415 1359 1279 1466 1295 1261 1077 193 0 0 108 100 425 402 99 0 0 0 0 0 0 0 0 0
CIN
0 0 0 0 0 0 0 0 -29 -67 -152 0 -95 -1 -130 -57 -202 -167 -136 -193 -181 -122 -94 -74 0 0 0 0 -169 -146 -161 -168 -156 -130 -101 -103 -92 -82 -78 -81 -68 -75 -83 -110
0 0 0 0 0 0 0 0 -70 -84 -153 -133 -93 -85 -155 -160 -255 -260 -218 -166 -170 -156 -130 -124 -38 0 0 -24 -175 -157 -136 -154 -170 -149 -136 -125 -98 -94 -77 -67 -54 -75 -103 -95
0 0 0 0 0 0 0 0 -57 -40 -148 -232 -237 -153 -164 -253 -295 -131 -276 -233 -182 -162 -161 -170 0 0 0 -199 -192 -195 -151 -153 -153 -159 -155 -143 -123 -100 -74 -60 -45 -63 -83 -77
0 0 0 0 0 0 0 0 -24 -73 -125 -14 -269 0 0 -136 -119 -287 -245 -278 -236 -209 -207 -244 -106 0 0 -87 -205 -192 -194 -170 -153 -177 -165 -141 -105 -60 -58 -55 -87 -84 -89 -101
0 0 0 0 0 0 0 -1 -67 -136 -134 0 -126 0 0 0 0 0 -330 -319 -389 -245 -211 -221 -273 -24 -3 -196 -194 -224 -239 -184 -168 -165 -163 -151 -117 -91 -72 -84 -88 -109 -140 -149
0 0 0 0 0 0 0 -67 -157 -222 0 0 0 0 0 0 0 0 0 -434 -374 -282 -244 -232 -236 -207 -38 -232 -209 -215 -228 -222 -204 -167 -180 -154 -116 -78 -75 -103 -105 -131 -173 -147
0 0 0 0 0 0 0 0 0 0 0 0 0 0 0 0 0 0 0 -226 -253 -277 -202 -233 -239 -158 -273 -174 -215 -218 -232 -197 -194 -189 -175 -164 -115 -83 -81 -99 -138 -137 -157 -153
0 0 0 0 0 0 0 0 0 0 0 0 0 0 0 0 0 0 -357 0 -362 -317 -282 -210 -201 -221 -266 -311 -235 -232 -232 -191 -197 -174 -176 -168 -106 -91 -114 -127 -150 -144 -170 -129
0 0 0 0 0 0 0 0 0 0 0 0 0 0 0 0 0 0 -347 -384 -347 -293 -289 -243 -250 -240 -270 -285 -251 -220 -230 -216 -207 -183 -175 -150 -128 -111 -117 -151 -165 -183 -146 -92
0 0 0 0 0 0 0 0 0 0 0 0 0 0 0 0 0 0 -356 -336 0 -352 -117 -322 -265 -257 -265 -277 -266 -240 -245 -214 -214 -210 -173 -153 -126 -138 -165 -168 -164 -130 -102 -111
0 0 0 0 0 0 0 0 0 0 0 0 0 0 0 0 0 0 -156 -184 0 -176 -172 -239 -261 -312 -277 -304 -277 -243 -241 -232 -229 -218 -191 -162 -170 -155 -172 -201 -157 -118 -140 -163
0 0 0 0 0 0 0 0 0 0 0 0 0 0 0 0 0 0 -236 -237 -334 -349 -224 -214 -271 -331 -326 -294 -286 -257 -243 -220 -240 -233 -196 -151 -157 -171 -175 -174 -151 -158 -129 -111
0 0 0 0 0 0 0 0 0 0 0 0 0 0 0 0 0 -74 0 -315 -337 -307 -195 -187 -192 -261 -293 -294 -259 -274 -250 -239 -259 -232 -188 -184 -172 -180 -164 -155 -171 -160 -137 -134
0 0 0 0 0 0 0 0 0 0 0 0 0 0 0 -56 0 -147 -161 0 -267 -226 -126 -124 -202 -249 -265 -293 -288 -267 -261 -279 -269 -229 -197 -186 -190 -204 -198 -189 -186 -178 -154 -141
0 0 0 0 0 0 0 0 0 0 0 0 0 0 0 0 -36 -168 0 -99 -187 -198 -158 -141 -199 -241 -285 -324 -349 -324 -299 -295 -268 -220 -200 -194 -219 -214 -197 -179 -182 -196 -200 -244
0 0 0 0 0 0 0 0 0 -3 -4 0 0 0 0 0 0 -28 0 -168 -149 -135 -167 -164 -251 -262 -294 -332 -337 -328 -320 -295 -263 -208 -193 -233 -221 -204 -188 -180 -214 -234 -301 -101
-140 0 0 0 0 0 0 -96 -215 -290 -432 -311 0 0 0 0 0 -125 0 0 -142 -109 -138 -160 -220 -238 -270 -306 -313 -298 -315 -296 -222 -188 -222 -218 -206 -185 -213 -231 -253 -296 -322 0
-154 -144 0 0 0 0 0 -54 -340 -224 -366 -483 -511 -297 -1 0 0 -96 -287 -96 -107 -98 -114 -180 -218 -254 -316 -339 -325 -338 -310 -264 -223 -189 -188 -201 -183 -183 -234 -261 -277 -332 -440 0
0 -28 -4 0 0 0 0 0 -77 -136 -191 -435 -450 -481 -555 -366 -203 -142 -246 -319 -265 -241 -191 -147 -209 -255 -321 -340 -349 -314 -261 -255 -225 -211 -212 -203 -187 -230 -217 -246 -292 -76 0 0
0 0 0 0 0 0 -15 -4 -373 -369 -88 -286 -435 -527 -550 -319 -142 -178 -240 -275 -270 -270 -220 -195 -250 -321 -340 -356 -358 -292 -264 -212 -157 -194 -175 -172 -185 -167 -195 -280 -383 0 0 0
0 0 -74 0 0 0 -202 -87 -304 -57 -76 -255 -372 -485 -568 -439 -444 -376 -389 -234 -229 -229 -213 -233 -245 -246 -295 -368 -339 -277 -216 -158 -227 -209 -92 -119 -111 -136 -218 -271 0 0 0 0
0 0 0 0 0 0 0 -263 -120 -167 -259 -250 -285 -363 -459 -551 0 -374 -235 -224 -234 -162 -168 -266 -262 -267 -319 -323 -313 -236 -214 -242 -264 -276 -154 -140 -116 -215 0 -163 -8 0 0 0
0 0 0 0 0 0 -309 -276 -209 -355 -274 -236 -253 -264 -327 -362 -383 -278 -221 -161 -145 -134 -151 -205 -228 -271 -297 -300 -242 -233 -246 -254 -267 -265 -213 -253 -262 -289 0 0 -187 0 0 0
0 0 0 0 0 0 0 0 0 0 -322 -296 -275 -272 -271 -155 0 -94 -127 -128 -175 -108 -127 -211 -254 -241 -249 -258 -244 -202 -292 -358 -339 -267 -275 -304 -322 0 0 0 0 0 0 0
0 0 0 0 0 0 0 0 0 0 0 -33 -296 -357 -296 -173 -133 -116 -97 -144 -170 -155 -187 -196 -239 -253 -280 -289 -203 -133 -259 -342 -238 -213 -293 -292 -232 0 0 0 0 0 0 0
0 0 0 0 0 0 0 0 0 0 0 0 -220 -271 -274 -108 -188 -102 -110 -109 -109 -113 -176 -195 -202 -210 -213 -378 0 -1 -277 -202 -224 -256 -279 -47 0 0 0 0 0 0 0 0
Wind_Speed
14 4 20 17 9 13 12 20 19 16 15 23 14 10 14 19 25 23 25 22 23 24 25 25 23 23 24 24 24 22 22 23 20 18 18 17 16 13 12 12 11 8 7 5
3 22 22 10 8 9 11 17 15 16 12 14 12 7 12 15 27 23 24 24 23 22 23 23 23 23 24 24 24 21 22 21 21 21 19 17 16 13 12 11 9 6 8 7
9 18 19 21 14 8 13 12 5 9 11 8 22 3 8 9 8 24 21 24 23 23 22 22 21 24 23 23 23 23 23 22 20 20 18 15 12 11 10 10 8 9 11 11
7 17 10 20 10 9 12 12 11 9 10 18 14 1 18 13 14 28 5 13 21 22 23 19 22 24 23 24 25 23 21 21 19 17 17 16 13 11 10 9 10 14 14 15
5 9 15 24 14 13 3 12 12 12 10 16 18 19 13 11 13 23 28 22 20 24 24 22 21 24 23 21 25 23 20 18 16 17 17 16 13 10 8 11 13 14 15 17
17 16 18 18 23 13 10 13 10 11 13 17 9 14 9 11 11 17 22 27 22 18 23 21 20 18 22 21 21 23 20 19 16 15 16 16 14 8 8 10 12 13 15 16
23 27 21 15 24 12 7 7 10 10 14 11 18 19 5 8 9 18 17 19 21 14 23 21 19 21 20 23 23 25 24 22 19 17 16 13 10 7 7 8 11 12 14 15
15 21 16 12 11 17 13 9 12 13 13 15 12 17 18 13 11 14 21 23 23 29 26 24 23 22 23 24 25 24 25 24 18 16 13 9 7 7 6 8 10 11 13 14
13 18 16 13 13 15 17 19 15 15 16 17 10 5 19 15 14 16 19 19 19 21 24 26 24 23 23 24 24 22 22 23 17 15 12 8 7 6 7 9 10 11 12 14
19 23 19 20 15 16 18 13 17 16 15 19 18 17 7 14 16 17 18 16 15 13 16 25 24 23 23 23 22 19 15 19 16 13 12 8 7 6 7 9 10 11 12 13
18 19 24 19 18 20 18 13 15 14 15 17 20 17 10 11 15 18 24 16 18 21 23 24 25 18 20 19 17 20 16 16 14 11 10 8 7 6 8 9 10 11 12 13
16 18 22 24 22 23 20 20 20 20 22 19 17 17 14 9 12 15 20 21 15 16 22 23 23 17 19 17 16 15 14 16 15 12 10 9 7 8 9 10 11 11 12 12
14 21 29 30 22 17 17 17 18 18 17 19 20 20 18 19 13 12 13 5 15 20 22 21 19 16 16 19 16 13 13 12 10 10 10 8 7 8 9 11 11 12 11 11
12 18 21 24 19 15 19 21 19 18 21 22 21 24 18 12 7 15 10 19 15 16 8 20 18 17 16 17 18 16 13 12 11 12 11 10 9 10 11 12 12 12 11 11
16 18 18 17 15 17 20 23 22 22 23 23 29 21 13 6 5 18 14 7 3 6 6 4 13 15 15 16 16 16 13 11 13 12 11 11 11 10 9 9 9 10 11 11
18 18 20 18 20 20 21 23 21 20 24 25 29 26 23 27 27 16 6 15 10 2 7 5 11 13 14 15 16 14 13 14 12 12 9 8 8 8 7 8 8 8 9 10
20 21 22 24 25 25 29 24 19 18 21 22 25 26 32 32 18 7 12 16 3 3 6 7 8 11 13 13 11 11 11 10 10 9 7 7 7 7 8 7 6 6 7 8
22 20 21 27 27 30 18 18 19 15 18 20 23 28 30 33 21 21 26 28 26 7 4 5 5 9 10 8 8 8 9 9 8 7 6 7 8 7 8 7 5 4 5 7
21 20 24 27 24 23 22 23 23 19 21 22 25 26 27 21 9 18 23 23 20 16 7 10 10 11 7 6 6 5 5 6 8 9 8 7 7 6 6 4 1 2 5 6
19 19 24 26 27 28 20 25 25 17 22 21 22 23 21 15 12 18 23 22 22 17 11 9 6 6 4 3 3 4 4 4 7 11 10 9 7 5 5 4 2 3 5 7
25 24 23 24 27 27 21 23 19 22 20 22 20 21 19 15 16 21 23 22 21 18 13 7 9 10 8 5 3 2 1 2 7 8 6 6 6 6 8 8 7 7 6 7
25 24 24 23 26 32 16 21 21 18 17 19 20 18 18 20 22 19 20 22 22 22 21 11 7 7 7 7 6 5 2 1 1 3 2 5 5 3 3 7 11 9 6 5
24 22 24 22 25 22 21 24 21 17 16 17 19 19 17 22 22 24 20 22 23 22 20 14 8 7 6 5 7 5 3 1 3 4 5 8 7 6 5 3 8 9 5 6
19 17 20 24 22 26 27 26 27 26 26 23 23 20 19 25 35 31 26 23 23 22 20 16 13 12 10 9 9 6 2 2 4 6 8 9 7 6 7 7 7 9 8 3
20 17 21 24 29 30 29 28 28 28 28 31 32 30 24 18 16 16 29 30 23 24 23 21 15 14 13 12 18 25 10 2 4 5 4 5 5 6 9 8 8 7 2 6
14 17 19 24 23 25 28 25 25 19 21 30 32 33 29 26 25 20 21 19 20 23 24 22 17 13 12 10 12 7 5 7 9 8 5 4 5 7 8 7 5 6 5 6
Wind_Direction
300 71 172 162 69 20 29 349 314 13 75 40 81 125 211 175 194 177 179 165 170 172 178 179 168 166 168 167 166 162 161 164 152 147 149 154 157 152 156 168 183 180 181 162
352 178 182 139 44 47 200 359 349 331 117 74 87 109 203 137 220 246 183 177 172 175 177 177 170 168 168 167 169 164 167 160 160 161 159 154 152 152 164 179 180 149 126 131
146 157 251 217 199 184 284 0 40 11 118 141 348 130 171 98 115 260 265 185 178 178 176 174 166 165 165 167 168 168 167 163 160 162 153 149 137 143 132 146 154 86 82 85
300 271 164 198 166 47 1 33 106 83 62 8 60 195 292 166 173 239 299 161 175 177 177 166 165 164 164 169 170 168 166 167 163 156 157 158 156 149 147 127 82 64 70 67
310 298 300 285 337 12 62 74 100 105 87 14 15 26 55 122 170 199 202 184 175 177 174 171 164 170 167 164 171 170 168 169 163 162 165 167 164 142 97 55 54 56 53 45
288 296 299 297 301 347 17 19 41 43 17 351 63 50 68 138 154 192 202 196 176 169 171 170 171 166 170 168 170 175 172 174 169 164 167 170 165 130 109 57 49 54 42 45
284 276 290 300 290 335 16 28 11 5 359 358 349 358 78 118 121 210 171 157 164 152 174 173 171 175 174 175 175 180 181 180 174 170 169 163 152 131 114 62 49 48 41 43
292 288 289 293 303 304 328 338 333 335 349 353 35 359 6 50 143 181 184 173 167 189 182 179 180 176 178 178 180 180 185 187 176 172 168 150 133 122 89 60 48 46 40 43
295 289 293 288 302 309 311 305 325 324 333 338 34 144 254 235 140 141 157 128 138 162 180 189 182 175 174 177 181 181 183 187 180 176 164 147 127 108 81 54 53 48 45 43
283 282 286 285 300 305 313 313 311 310 313 315 326 355 113 226 181 139 145 140 147 129 159 187 176 173 174 177 178 178 177 185 181 173 165 148 126 87 64 50 43 53 53 53
274 277 273 288 292 296 313 301 314 325 312 308 310 326 53 137 131 184 208 161 240 204 228 222 184 166 169 171 173 179 176 176 172 165 154 138 115 82 63 73 75 72 70 69
272 280 273 275 284 291 297 304 305 297 295 307 307 312 331 141 155 172 186 218 170 163 218 227 174 155 170 167 169 170 169 170 165 154 146 134 105 89 84 94 91 82 75 70
284 272 269 276 285 296 295 308 317 315 309 295 296 301 314 300 327 156 154 101 163 199 225 195 161 154 156 169 168 164 164 165 156 146 143 130 113 106 103 101 98 88 72 59
294 282 272 271 281 293 290 298 308 312 302 303 303 298 302 307 306 175 163 190 158 161 117 181 167 161 157 162 169 167 162 159 154 151 147 142 134 126 118 108 97 89 75 61
298 288 288 284 290 291 295 296 300 301 302 301 298 304 311 294 209 186 177 331 335 144 140 127 155 154 153 156 158 160 160 156 152 150 149 147 135 125 111 101 88 78 70 58
305 289 290 291 293 296 294 301 302 303 301 300 298 295 304 290 276 298 300 305 306 179 154 145 155 152 152 151 154 152 154 154 153 153 153 143 140 127 117 111 99 84 68 54
294 294 288 282 291 295 286 295 298 307 310 303 299 298 290 280 288 265 299 298 275 268 158 147 152 157 156 159 157 161 164 161 162 160 158 154 151 148 143 126 105 84 59 42
291 295 296 282 288 283 297 305 299 301 311 314 307 301 296 282 288 296 298 286 278 264 222 193 171 154 152 151 160 161 165 176 186 192 181 176 167 163 152 141 118 74 39 39
291 293 290 284 287 289 292 299 295 292 299 306 302 303 303 307 322 309 315 305 289 286 247 186 175 165 144 139 142 154 180 207 219 221 217 220 202 187 176 176 193 41 33 29
299 295 282 282 282 280 293 300 300 292 292 301 300 303 310 318 306 309 316 318 316 289 274 248 223 212 197 176 154 162 186 217 242 257 258 251 242 211 222 243 278 345 11 10
286 286 282 283 279 283 293 303 303 295 292 298 299 300 305 309 310 307 313 325 322 320 309 274 247 242 245 232 202 231 211 262 311 330 294 265 249 259 282 290 304 321 341 357
279 283 284 288 285 282 302 302 298 306 303 295 298 302 302 301 302 318 331 327 327 317 311 318 304 271 256 222 211 210 229 278 351 344 58 123 184 188 193 284 299 305 325 358
284 286 289 289 289 307 302 299 296 304 306 304 298 295 303 292 296 294 326 327 333 325 322 331 319 313 295 240 233 257 314 31 26 41 85 125 148 145 155 255 285 305 316 336
295 300 298 298 302 304 304 293 289 287 288 293 283 292 300 287 274 284 296 308 316 324 333 331 328 317 306 295 278 235 202 119 114 119 127 120 109 100 100 86 101 141 154 11
300 310 303 300 300 301 302 300 290 282 286 281 272 277 290 308 317 296 286 291 303 312 322 324 332 321 319 332 326 299 287 191 134 118 115 89 67 96 114 112 123 130 70 8
304 306 305 301 310 312 304 315 307 303 282 272 269 273 283 295 305 302 303 311 311 314 318 327 321 313 306 307 321 317 184 185 130 126 127 103 102 115 115 107 83 13 27 36